Location: *
(50.3440°N, 18.6237°E)
Time: 17:37:10
(UTC+00:00)

CZ-2C R/B - Pass Details

Date: 30 November 2020
Orbit: 705 x 907 km, 98.1° (Epoch: 17 January)

Event Time Altitude Azimuth Distance (km) Brightness Sun altitude
Rises 17:39:18 0° 179° (S) 3,228 6.3 -26.8°
Reaches altitude 10° 17:41:42 10° 184° (S) 2,277 5.5 -27.2°
Maximum altitude 17:46:33 51° 260° (W) 922 3.7 -28.0°
Drops below altitude 10° 17:51:15 10° 337° (NNW) 2,208 5.6 -28.7°
Sets 17:53:34 0° 342° (NNW) 3,121 6.4 -29.1°
